QPF
0.00 0.00 0.00 0.00 0.00 0.00 0.00 0.00 0.00 0.00 0.00 0.00 0.00 0.00 0.00 0.00 0.00 0.00 0.00 0.00 0.00 0.00 0.00 0.01 0.01 0.00 0.00 0.00 0.02 0.02 0.01 0.00 0.00 0.00 0.00 0.00 0.00 0.00 0.00 0.00 0.00 0.00 0.02
0.00 0.00 0.00 0.00 0.00 0.00 0.00 0.00 0.00 0.00 0.00 0.00 0.00 0.00 0.00 0.01 0.00 0.00 0.00 0.00 0.00 0.00 0.00 0.00 0.01 0.01 0.00 0.00 0.00 0.01 0.02 0.01 0.00 0.01 0.00 0.00 0.00 0.00 0.00 0.00 0.00 0.00 0.01
0.00 0.00 0.00 0.00 0.00 0.00 0.00 0.00 0.00 0.00 0.00 0.00 0.00 0.00 0.00 0.00 0.00 0.00 0.00 0.00 0.00 0.00 0.00 0.00 0.00 0.00 0.00 0.01 0.00 0.00 0.01 0.01 0.01 0.00 0.00 0.00 0.00 0.00 0.00 0.00 0.00 0.00 0.00
0.00 0.00 0.00 0.00 0.00 0.00 0.00 0.00 0.00 0.00 0.00 0.00 0.00 0.00 0.00 0.00 0.00 0.00 0.00 0.00 0.00 0.00 0.00 0.00 0.00 0.00 0.00 0.01 0.00 0.00 0.00 0.01 0.01 0.00 0.00 0.00 0.00 0.00 0.00 0.00 0.00 0.00 0.00
0.00 0.00 0.00 0.00 0.00 0.00 0.00 0.00 0.00 0.00 0.00 0.00 0.00 0.00 0.00 0.00 0.00 0.00 0.00 0.00 0.00 0.00 0.00 0.00 0.00 0.00 0.00 0.00 0.00 0.00 0.00 0.01 0.01 0.00 0.00 0.00 0.00 0.00 0.00 0.00 0.00 0.00 0.00
0.00 0.00 0.00 0.00 0.00 0.00 0.00 0.00 0.00 0.00 0.00 0.00 0.00 0.00 0.00 0.00 0.00 0.00 0.00 0.00 0.00 0.00 0.00 0.00 0.00 0.00 0.00 0.00 0.00 0.00 0.00 0.01 0.00 0.00 0.00 0.00 0.00 0.00 0.00 0.00 0.00 0.00 0.00
0.00 0.00 0.00 0.00 0.00 0.00 0.00 0.00 0.00 0.00 0.00 0.00 0.00 0.00 0.00 0.00 0.00 0.00 0.00 0.00 0.00 0.00 0.00 0.00 0.00 0.00 0.00 0.00 0.00 0.00 0.00 0.00 0.00 0.00 0.00 0.00 0.00 0.00 0.00 0.00 0.00 0.00 0.00
0.00 0.00 0.00 0.00 0.00 0.00 0.00 0.00 0.00 0.00 0.00 0.00 0.00 0.00 0.00 0.00 0.00 0.00 0.00 0.00 0.00 0.00 0.00 0.00 0.00 0.00 0.00 0.00 0.00 0.00 0.00 0.00 0.00 0.00 0.00 0.00 0.00 0.00 0.00 0.00 0.00 0.00 0.00
0.00 0.00 0.00 0.00 0.00 0.00 0.00 0.00 0.00 0.00 0.00 0.00 0.00 0.00 0.00 0.00 0.00 0.00 0.00 0.00 0.00 0.00 0.00 0.00 0.00 0.00 0.00 0.00 0.00 0.00 0.00 0.00 0.00 0.00 0.00 0.00 0.00 0.00 0.00 0.00 0.00 0.00 0.00
0.00 0.00 0.00 0.00 0.00 0.00 0.00 0.00 0.00 0.00 0.00 0.00 0.00 0.00 0.00 0.00 0.00 0.00 0.00 0.00 0.00 0.00 0.00 0.00 0.00 0.00 0.00 0.00 0.00 0.00 0.00 0.00 0.00 0.00 0.00 0.00 0.00 0.00 0.00 0.00 0.00 0.00 0.00
0.00 0.00 0.00 0.00 0.00 0.00 0.00 0.00 0.00 0.00 0.00 0.00 0.00 0.00 0.00 0.00 0.00 0.00 0.00 0.00 0.00 0.00 0.00 0.00 0.00 0.00 0.00 0.00 0.00 0.00 0.00 0.00 0.00 0.00 0.00 0.00 0.00 0.00 0.00 0.00 0.00 0.00 0.00
0.00 0.00 0.00 0.00 0.00 0.00 0.00 0.00 0.00 0.00 0.00 0.00 0.00 0.00 0.00 0.00 0.00 0.00 0.00 0.00 0.00 0.00 0.00 0.00 0.00 0.00 0.00 0.00 0.00 0.00 0.00 0.00 0.00 0.00 0.00 0.00 0.00 0.00 0.00 0.00 0.00 0.00 0.00
0.00 0.00 0.00 0.00 0.00 0.00 0.00 0.00 0.00 0.00 0.00 0.00 0.00 0.00 0.00 0.00 0.00 0.00 0.00 0.00 0.00 0.00 0.00 0.00 0.00 0.00 0.00 0.00 0.00 0.00 0.00 0.00 0.00 0.00 0.00 0.00 0.00 0.00 0.00 0.00 0.00 0.00 0.00
0.00 0.00 0.00 0.00 0.00 0.00 0.00 0.00 0.00 0.00 0.00 0.00 0.00 0.00 0.00 0.00 0.00 0.00 0.00 0.00 0.00 0.00 0.00 0.00 0.00 0.00 0.00 0.00 0.00 0.00 0.00 0.00 0.00 0.00 0.00 0.00 0.00 0.00 0.00 0.00 0.00 0.00 0.00
0.00 0.00 0.00 0.00 0.00 0.00 0.00 0.00 0.00 0.00 0.00 0.00 0.00 0.00 0.00 0.00 0.00 0.00 0.00 0.00 0.00 0.00 0.00 0.00 0.00 0.00 0.00 0.00 0.00 0.00 0.00 0.00 0.00 0.00 0.00 0.00 0.00 0.00 0.00 0.00 0.00 0.00 0.00
0.00 0.00 0.00 0.00 0.00 0.00 0.00 0.00 0.00 0.00 0.00 0.00 0.00 0.00 0.00 0.00 0.00 0.00 0.00 0.00 0.00 0.00 0.00 0.00 0.00 0.00 0.00 0.00 0.00 0.00 0.00 0.00 0.00 0.00 0.00 0.00 0.00 0.00 0.00 0.00 0.00 0.00 0.00
0.00 0.00 0.00 0.00 0.00 0.00 0.00 0.00 0.00 0.00 0.00 0.00 0.00 0.00 0.00 0.00 0.00 0.00 0.00 0.00 0.00 0.00 0.00 0.00 0.00 0.00 0.00 0.00 0.00 0.00 0.00 0.00 0.00 0.00 0.00 0.00 0.00 0.00 0.00 0.00 0.00 0.00 0.00
0.00 0.00 0.00 0.00 0.00 0.00 0.00 0.00 0.00 0.00 0.00 0.00 0.00 0.00 0.00 0.00 0.00 0.00 0.00 0.00 0.00 0.00 0.00 0.00 0.00 0.00 0.00 0.00 0.00 0.00 0.00 0.00 0.00 0.00 0.00 0.00 0.00 0.00 0.00 0.00 0.00 0.00 0.00
0.00 0.00 0.00 0.00 0.00 0.00 0.00 0.00 0.00 0.00 0.00 0.00 0.00 0.00 0.00 0.00 0.00 0.00 0.00 0.00 0.00 0.00 0.00 0.00 0.00 0.00 0.00 0.00 0.00 0.00 0.00 0.00 0.00 0.00 0.00 0.00 0.00 0.00 0.00 0.00 0.00 0.00 0.00
0.00 0.00 0.00 0.00 0.00 0.00 0.00 0.00 0.00 0.00 0.00 0.00 0.00 0.00 0.00 0.00 0.00 0.00 0.00 0.00 0.00 0.00 0.00 0.00 0.00 0.00 0.00 0.00 0.00 0.00 0.00 0.00 0.00 0.00 0.00 0.00 0.00 0.00 0.00 0.00 0.00 0.00 0.00
0.00 0.00 0.00 0.00 0.00 0.00 0.00 0.00 0.00 0.00 0.00 0.00 0.00 0.00 0.00 0.00 0.00 0.00 0.00 0.00 0.00 0.00 0.00 0.00 0.00 0.00 0.00 0.00 0.00 0.00 0.00 0.00 0.00 0.00 0.00 0.00 0.00 0.00 0.00 0.00 0.00 0.00 0.00
0.00 0.00 0.00 0.00 0.00 0.00 0.00 0.00 0.00 0.00 0.00 0.00 0.00 0.00 0.00 0.00 0.00 0.00 0.00 0.00 0.00 0.00 0.00 0.00 0.00 0.00 0.00 0.00 0.01 0.00 0.00 0.00 0.00 0.00 0.00 0.00 0.00 0.00 0.00 0.00 0.00 0.00 0.00
0.00 0.00 0.00 0.00 0.00 0.00 0.00 0.00 0.00 0.00 0.00 0.00 0.00 0.00 0.00 0.00 0.00 0.00 0.00 0.00 0.00 0.00 0.00 0.00 0.00 0.00 0.00 0.00 0.00 0.01 0.02 0.01 0.00 0.00 0.00 0.00 0.00 0.00 0.00 0.00 0.00 0.01 0.04
0.00 0.00 0.00 0.00 0.00 0.00 0.00 0.00 0.00 0.00 0.00 0.00 0.00 0.00 0.00 0.00 0.00 0.00 0.00 0.00 0.00 0.00 0.00 0.00 0.00 0.00 0.00 0.00 0.00 0.00 0.01 0.01 0.02 0.01 0.00 0.00 0.00 0.00 0.00 0.00 0.02 0.05 0.08
0.00 0.00 0.00 0.00 0.00 0.00 0.00 0.00 0.00 0.00 0.00 0.00 0.00 0.00 0.00 0.00 0.00 0.00 0.00 0.00 0.00 0.00 0.00 0.00 0.00 0.00 0.00 0.00 0.00 0.00 0.00 0.00 0.01 0.02 0.00 0.00 0.00 0.00 0.00 0.00 0.00 0.01 0.02
0.00 0.00 0.00 0.00 0.00 0.00 0.00 0.00 0.00 0.00 0.00 0.00 0.00 0.00 0.00 0.00 0.00 0.00 0.00 0.00 0.00 0.00 0.00 0.00 0.00 0.00 0.00 0.00 0.00 0.00 0.00 0.01 0.01 0.02 0.01 0.00 0.00 0.00 0.00 0.00 0.00 0.00 0.00
MSLP
1024.36 1024.43 1024.59 1024.77 1024.71 1024.55 1024.36 1024.08 1023.79 1023.57 1023.31 1023.25 1023.46 1023.40 1023.31 1023.23 1023.06 1022.93 1022.56 1022.46 1022.24 1022.07 1021.98 1021.65 1021.22 1021.09 1020.87 1020.53 1020.17 1019.73 1019.39 1019.12 1018.90 1018.93 1018.92 1018.69 1018.25 1018.03 1018.00 1017.92 1017.67 1017.36 1017.00
1024.23 1024.32 1024.74 1024.98 1024.89 1024.68 1024.42 1024.15 1024.02 1023.82 1023.67 1023.50 1023.71 1023.59 1023.56 1023.40 1023.43 1023.02 1022.76 1022.62 1022.53 1022.25 1022.10 1021.73 1021.68 1021.30 1020.97 1020.72 1020.57 1020.25 1019.80 1019.29 1019.13 1019.25 1019.19 1018.85 1018.54 1018.11 1018.07 1018.03 1017.91 1017.71 1017.36
1024.56 1024.64 1025.12 1025.24 1025.12 1024.94 1024.70 1024.51 1024.26 1024.11 1024.11 1024.03 1023.93 1023.75 1023.84 1023.74 1023.52 1023.37 1023.16 1022.80 1022.56 1022.52 1022.41 1022.00 1021.71 1021.48 1021.26 1021.14 1021.02 1020.56 1020.34 1019.82 1019.49 1019.26 1019.24 1019.05 1018.71 1018.14 1018.15 1017.99 1018.03 1017.86 1017.65
1024.80 1025.09 1025.62 1025.53 1025.37 1025.13 1024.82 1024.67 1024.57 1024.58 1024.47 1024.38 1024.24 1024.07 1023.84 1023.96 1023.95 1023.73 1023.38 1023.17 1023.00 1022.54 1022.28 1022.09 1021.98 1021.80 1021.59 1021.45 1021.22 1021.00 1020.63 1020.42 1020.06 1019.85 1019.67 1019.41 1019.33 1018.93 1018.51 1018.40 1018.16 1018.01 1017.88
1025.06 1025.38 1025.95 1025.77 1025.56 1025.36 1025.07 1024.89 1024.73 1024.61 1024.73 1024.64 1024.62 1024.45 1024.30 1024.40 1024.36 1024.17 1023.85 1023.61 1023.33 1022.97 1022.69 1022.49 1022.26 1021.94 1021.70 1021.39 1021.20 1020.96 1020.77 1020.58 1020.53 1020.54 1020.26 1019.79 1019.53 1019.24 1018.79 1018.76 1018.74 1018.46 1018.13
1025.23 1025.43 1025.90 1025.89 1025.79 1025.62 1025.30 1025.13 1024.92 1024.94 1024.99 1025.09 1025.12 1024.90 1024.86 1024.77 1024.69 1024.47 1024.28 1024.08 1023.71 1023.33 1023.11 1022.89 1022.49 1022.16 1021.96 1021.68 1021.56 1021.06 1020.72 1020.95 1020.91 1021.06 1020.65 1020.13 1019.63 1019.32 1019.13 1018.87 1018.90 1018.76 1018.35
1025.34 1025.40 1025.74 1025.92 1025.99 1025.86 1025.66 1025.60 1025.46 1025.45 1025.46 1025.52 1025.49 1025.35 1025.29 1025.16 1024.92 1024.60 1024.45 1024.20 1023.99 1023.71 1023.44 1023.07 1022.90 1022.59 1022.29 1022.04 1021.75 1021.34 1021.14 1021.08 1021.15 1021.16 1020.85 1020.33 1019.90 1019.52 1019.28 1019.07 1018.71 1018.70 1018.36
1025.39 1025.53 1025.67 1025.68 1025.92 1026.06 1026.00 1025.96 1025.87 1025.75 1025.72 1025.74 1025.71 1025.61 1025.44 1025.32 1025.05 1024.69 1024.61 1024.37 1024.12 1023.84 1023.61 1023.31 1023.10 1022.76 1022.44 1022.20 1021.97 1021.69 1021.57 1021.42 1021.34 1021.26 1020.82 1020.32 1019.94 1019.59 1019.30 1019.28 1019.05 1018.76 1018.40
1025.42 1025.62 1025.77 1025.85 1025.90 1025.81 1025.85 1026.19 1026.15 1025.91 1025.84 1025.80 1025.74 1025.64 1025.39 1025.01 1024.80 1024.77 1024.53 1024.58 1024.32 1024.03 1023.73 1023.44 1023.23 1022.84 1022.57 1022.29 1022.03 1021.71 1021.44 1021.16 1021.05 1020.96 1020.60 1020.23 1019.92 1019.55 1019.65 1019.57 1019.22 1018.77 1018.33
1025.58 1025.71 1025.92 1025.95 1025.98 1026.04 1025.90 1026.06 1025.99 1025.96 1025.86 1025.67 1025.54 1025.39 1025.20 1025.11 1024.88 1024.92 1024.67 1024.52 1024.24 1023.96 1023.69 1023.34 1022.94 1022.67 1022.45 1022.20 1021.78 1021.54 1021.27 1021.14 1021.08 1020.73 1020.45 1020.22 1019.63 1019.60 1019.61 1019.44 1019.12 1018.78 1018.37
1025.55 1025.84 1025.99 1026.18 1026.16 1026.09 1025.75 1025.95 1025.95 1025.88 1025.73 1025.71 1025.75 1025.71 1025.67 1025.44 1025.11 1024.91 1024.69 1024.36 1024.06 1023.89 1023.60 1023.20 1022.90 1022.53 1022.27 1022.32 1022.00 1021.62 1021.42 1021.36 1021.04 1020.80 1020.46 1020.12 1019.55 1019.34 1019.41 1019.31 1019.04 1018.78 1018.37
1025.81 1026.02 1026.32 1026.48 1026.41 1026.25 1025.91 1026.11 1026.06 1025.97 1026.06 1025.88 1025.91 1025.86 1025.83 1025.50 1025.21 1024.88 1024.86 1024.47 1024.33 1023.91 1023.78 1023.50 1023.29 1022.97 1022.85 1022.59 1022.20 1021.79 1021.65 1021.36 1021.10 1020.78 1020.35 1019.78 1019.42 1019.25 1019.02 1018.79 1018.61 1018.35 1018.11
1025.77 1026.16 1026.41 1026.55 1026.40 1026.38 1026.33 1026.26 1026.25 1026.18 1026.23 1026.17 1026.10 1026.00 1025.92 1025.65 1025.44 1025.27 1025.15 1024.91 1024.59 1024.19 1024.22 1024.11 1023.97 1023.53 1023.09 1022.79 1022.47 1022.11 1021.61 1021.20 1021.00 1020.70 1020.30 1019.78 1019.27 1018.94 1018.82 1018.57 1018.29 1017.98 1017.71
1025.61 1026.10 1026.36 1026.53 1026.61 1026.59 1026.47 1026.58 1026.54 1026.56 1026.46 1026.47 1026.29 1026.18 1026.17 1026.07 1025.78 1025.46 1025.23 1025.04 1025.02 1024.90 1024.73 1024.54 1024.38 1023.85 1023.46 1023.16 1022.70 1022.13 1021.55 1021.08 1020.69 1020.37 1020.07 1019.62 1019.24 1018.80 1018.43 1018.15 1017.96 1017.62 1017.26
1025.55 1025.91 1026.28 1026.48 1026.83 1026.77 1026.70 1026.73 1026.72 1026.68 1026.73 1026.53 1026.43 1026.35 1026.29 1026.28 1026.05 1025.64 1025.27 1025.14 1025.23 1025.35 1025.45 1025.09 1024.69 1024.16 1023.70 1023.33 1022.88 1022.37 1021.67 1020.90 1020.43 1020.09 1019.74 1019.26 1018.95 1018.68 1018.28 1017.78 1017.44 1017.12 1016.76
1025.46 1025.96 1026.31 1026.52 1026.74 1026.75 1026.66 1026.69 1026.74 1026.72 1026.72 1026.64 1026.64 1026.53 1026.43 1026.43 1026.30 1025.97 1025.64 1025.52 1025.59 1025.60 1025.35 1025.06 1024.61 1024.12 1023.73 1023.36 1022.93 1022.30 1021.66 1021.01 1020.63 1020.19 1019.68 1019.17 1018.59 1018.35 1018.03 1017.73 1017.48 1017.05 1016.49
1025.47 1025.87 1026.29 1026.47 1026.40 1026.51 1026.53 1026.59 1026.63 1026.74 1026.73 1026.74 1026.63 1026.56 1026.58 1026.50 1026.37 1026.12 1025.84 1025.67 1025.68 1025.53 1025.40 1024.96 1024.52 1024.05 1023.57 1023.08 1022.86 1022.29 1021.66 1021.09 1020.63 1020.31 1019.75 1019.09 1018.65 1018.36 1018.06 1017.86 1017.39 1016.85 1016.17
1025.25 1025.68 1025.97 1026.08 1026.15 1026.38 1026.50 1026.46 1026.48 1026.56 1026.61 1026.69 1026.67 1026.64 1026.68 1026.51 1026.47 1026.40 1026.11 1025.81 1025.67 1025.60 1025.28 1024.95 1024.51 1024.04 1023.53 1023.00 1022.58 1022.22 1021.67 1021.06 1020.43 1020.17 1019.61 1018.90 1018.56 1018.22 1018.05 1017.89 1017.39 1016.72 1015.92
1025.43 1025.64 1025.93 1026.18 1026.31 1026.42 1026.34 1026.25 1026.32 1026.24 1026.39 1026.57 1026.64 1026.69 1026.63 1026.42 1026.40 1026.36 1026.13 1025.75 1025.46 1025.40 1025.26 1024.97 1024.54 1024.12 1023.62 1023.20 1022.68 1022.00 1021.44 1020.78 1020.27 1019.65 1019.58 1018.96 1018.48 1018.17 1018.10 1017.87 1017.22 1016.41 1015.57
1025.44 1025.83 1025.99 1026.02 1026.00 1026.17 1026.11 1026.07 1026.11 1026.14 1026.30 1026.44 1026.60 1026.63 1026.54 1026.55 1026.45 1026.34 1026.13 1025.73 1025.34 1025.28 1025.22 1025.12 1025.06 1024.49 1024.09 1023.47 1022.83 1022.19 1021.67 1020.76 1020.27 1019.96 1019.66 1018.85 1018.28 1018.06 1018.05 1017.71 1016.99 1016.11 1015.20
1025.25 1025.52 1025.55 1025.77 1025.88 1026.21 1026.36 1026.42 1026.59 1026.75 1026.80 1026.86 1026.66 1026.56 1026.53 1026.46 1026.39 1026.31 1026.15 1025.82 1025.50 1025.36 1025.19 1025.05 1024.87 1024.70 1024.19 1023.65 1023.11 1022.30 1021.48 1020.70 1020.22 1020.03 1019.60 1019.14 1018.49 1018.07 1017.78 1017.37 1016.71 1015.74 1014.75
1024.95 1025.21 1025.48 1025.62 1025.85 1026.08 1026.46 1026.61 1026.83 1026.88 1026.85 1026.74 1026.58 1026.52 1026.45 1026.40 1026.29 1026.12 1026.03 1025.78 1025.51 1025.37 1025.15 1024.99 1024.83 1024.74 1024.43 1024.00 1023.82 1023.07 1021.90 1021.15 1020.69 1020.52 1019.83 1019.30 1018.71 1017.98 1017.44 1016.86 1016.20 1015.07 1014.25
1024.55 1024.77 1025.10 1025.41 1025.76 1025.96 1026.03 1026.32 1026.38 1026.32 1026.48 1026.61 1026.58 1026.68 1026.51 1026.28 1026.21 1026.08 1025.88 1025.66 1025.56 1025.34 1025.18 1024.82 1024.58 1024.60 1024.51 1024.18 1023.87 1023.80 1023.02 1022.38 1021.61 1020.35 1019.74 1019.00 1018.56 1017.98 1017.49 1016.99 1015.74 1014.98 1014.22
1024.22 1024.52 1024.84 1025.33 1025.63 1025.86 1026.04 1026.36 1026.49 1026.75 1026.65 1026.61 1026.60 1026.47 1026.38 1026.06 1026.01 1025.90 1025.76 1025.71 1025.63 1025.41 1025.32 1024.93 1024.32 1024.25 1024.07 1023.99 1023.60 1023.46 1023.46 1023.12 1022.30 1020.86 1020.05 1019.50 1018.91 1018.15 1017.47 1016.80 1015.94 1015.24 1014.19
1023.66 1024.29 1024.75 1025.08 1025.41 1025.70 1026.04 1026.26 1026.63 1026.71 1026.63 1026.43 1026.46 1026.32 1026.29 1026.01 1025.83 1025.74 1025.68 1025.72 1025.58 1025.18 1025.03 1024.84 1024.53 1024.16 1023.85 1023.69 1023.53 1023.15 1023.13 1022.79 1022.38 1021.58 1020.32 1019.52 1018.97 1018.25 1017.51 1017.03 1016.19 1015.32 1014.40
1023.35 1023.96 1024.42 1024.76 1025.08 1025.34 1025.80 1026.14 1026.45 1026.68 1026.69 1026.69 1026.51 1026.46 1026.27 1026.15 1025.81 1025.58 1025.51 1025.62 1025.44 1025.15 1024.80 1024.49 1024.12 1024.03 1023.75 1023.47 1023.28 1023.18 1023.15 1022.95 1022.50 1021.86 1021.02 1020.07 1019.26 1018.05 1017.43 1016.84 1016.27 1015.56 1014.80
Thickness
5645 5645 5641 5637 5638 5638 5638 5640 5641 5641 5642 5642 5640 5640 5641 5640 5641 5643 5646 5647 5649 5650 5651 5655 5661 5664 5668 5673 5679 5683 5686 5689 5696 5701 5704 5706 5709 5713 5716 5718 5723 5729 5733
5642 5641 5634 5633 5632 5632 5633 5634 5634 5635 5635 5635 5632 5631 5631 5632 5632 5634 5637 5637 5638 5640 5642 5645 5647 5653 5659 5663 5667 5672 5677 5683 5687 5691 5692 5696 5701 5707 5711 5713 5716 5721 5726
5636 5634 5628 5625 5625 5624 5625 5624 5625 5625 5625 5625 5624 5624 5623 5623 5624 5624 5626 5628 5630 5630 5631 5635 5638 5641 5645 5649 5652 5658 5665 5672 5678 5682 5684 5688 5694 5700 5703 5706 5709 5713 5718
5630 5627 5620 5618 5616 5616 5616 5615 5614 5613 5613 5613 5613 5613 5614 5612 5612 5614 5616 5618 5619 5622 5625 5625 5627 5630 5633 5637 5640 5645 5650 5658 5665 5667 5671 5677 5680 5686 5691 5696 5699 5705 5709
5624 5620 5611 5610 5610 5609 5608 5606 5604 5603 5601 5601 5601 5601 5601 5599 5599 5601 5603 5606 5608 5611 5612 5615 5618 5618 5621 5627 5631 5636 5640 5645 5649 5653 5656 5664 5671 5674 5681 5686 5689 5693 5698
5617 5614 5606 5604 5600 5598 5597 5595 5594 5590 5588 5587 5586 5588 5588 5587 5587 5588 5589 5591 5594 5597 5600 5602 5605 5609 5611 5613 5616 5624 5630 5631 5633 5641 5644 5650 5658 5663 5668 5674 5677 5682 5688
5611 5607 5601 5595 5590 5587 5585 5582 5579 5576 5573 5570 5569 5570 5571 5573 5574 5576 5575 5577 5579 5581 5584 5588 5591 5594 5598 5601 5605 5610 5614 5619 5622 5626 5633 5638 5644 5649 5656 5663 5667 5672 5679
5605 5598 5592 5586 5580 5575 5571 5568 5565 5563 5561 5557 5555 5553 5554 5556 5559 5561 5562 5563 5565 5567 5569 5572 5576 5581 5584 5588 5592 5596 5598 5603 5607 5612 5621 5627 5632 5637 5642 5649 5654 5659 5667
5593 5586 5581 5575 5570 5565 5562 5556 5553 5553 5551 5549 5547 5545 5545 5547 5548 5549 5550 5550 5552 5553 5556 5559 5561 5565 5568 5573 5577 5581 5585 5590 5595 5600 5606 5613 5619 5624 5626 5632 5640 5648 5655
5581 5575 5568 5564 5561 5557 5554 5551 5548 5547 5546 5546 5544 5544 5543 5542 5542 5542 5543 5544 5545 5546 5548 5551 5553 5555 5556 5558 5563 5566 5571 5574 5577 5583 5590 5597 5605 5609 5612 5617 5626 5634 5642
5576 5567 5562 5558 5555 5553 5553 5548 5545 5544 5544 5543 5541 5539 5538 5538 5539 5538 5537 5538 5540 5541 5542 5544 5546 5549 5550 5549 5551 5553 5554 5557 5562 5566 5571 5577 5587 5594 5597 5602 5610 5618 5627
5570 5564 5558 5554 5552 5550 5549 5545 5543 5542 5539 5539 5536 5535 5534 5535 5535 5534 5532 5533 5532 5533 5533 5534 5535 5537 5538 5540 5542 5544 5545 5546 5548 5552 5556 5561 5567 5574 5582 5589 5597 5605 5613
5570 5563 5558 5553 5550 5547 5545 5542 5539 5538 5535 5533 5531 5531 5529 5529 5528 5528 5527 5526 5527 5526 5525 5524 5523 5525 5527 5529 5530 5532 5535 5537 5538 5540 5543 5547 5552 5557 5563 5571 5579 5589 5598
5570 5563 5557 5551 5548 5544 5542 5539 5536 5533 5531 5529 5527 5525 5524 5524 5524 5525 5524 5522 5520 5518 5517 5516 5514 5515 5516 5516 5518 5521 5524 5526 5528 5529 5531 5532 5535 5541 5548 5553 5560 5570 5581
5570 5563 5557 5551 5545 5543 5540 5537 5534 5531 5527 5525 5524 5522 5520 5519 5519 5519 5519 5517 5514 5509 5505 5505 5504 5505 5506 5505 5506 5508 5511 5514 5516 5516 5517 5519 5520 5522 5528 5537 5543 5551 5561
5571 5563 5557 5551 5547 5542 5541 5538 5534 5531 5527 5524 5521 5519 5517 5515 5513 5512 5511 5508 5504 5499 5496 5495 5496 5496 5495 5494 5493 5495 5497 5499 5499 5500 5501 5502 5503 5505 5509 5514 5521 5530 5541
5571 5565 5556 5551 5549 5546 5543 5539 5535 5530 5526 5523 5520 5517 5513 5510 5508 5506 5504 5501 5495 5490 5487 5486 5486 5486 5485 5484 5482 5482 5482 5482 5482 5481 5482 5482 5483 5483 5486 5489 5497 5508 5520
5575 5567 5562 5557 5553 5548 5544 5541 5536 5531 5527 5523 5519 5516 5511 5509 5505 5502 5499 5496 5491 5486 5482 5479 5478 5478 5477 5476 5472 5469 5467 5465 5465 5462 5461 5462 5463 5464 5464 5465 5474 5484 5497
5576 5571 5564 5557 5554 5549 5545 5542 5537 5535 5530 5524 5521 5517 5512 5510 5505 5501 5497 5495 5491 5485 5480 5476 5473 5471 5469 5465 5461 5458 5455 5453 5450 5448 5442 5444 5447 5448 5447 5448 5453 5462 5472
5579 5572 5567 5562 5558 5553 5550 5547 5543 5540 5534 5529 5523 5519 5515 5509 5505 5501 5497 5494 5490 5484 5478 5472 5465 5462 5458 5455 5451 5446 5440 5439 5436 5432 5430 5432 5434 5434 5431 5431 5437 5443 5449
5584 5577 5573 5568 5563 5558 5552 5548 5542 5536 5532 5528 5524 5519 5515 5510 5505 5500 5496 5492 5488 5482 5476 5469 5464 5455 5450 5446 5439 5436 5430 5426 5423 5418 5415 5416 5419 5419 5418 5417 5419 5421 5429
5591 5584 5578 5574 5568 5561 5555 5549 5543 5538 5534 5530 5525 5520 5515 5509 5504 5500 5495 5491 5485 5479 5473 5466 5459 5449 5441 5436 5426 5420 5423 5415 5407 5400 5397 5399 5403 5404 5404 5405 5404 5407 5412
5597 5591 5584 5577 5570 5564 5559 5552 5547 5543 5537 5531 5526 5520 5515 5510 5505 5499 5494 5489 5482 5476 5469 5464 5456 5446 5436 5424 5413 5403 5399 5397 5397 5391 5388 5390 5392 5392 5390 5388 5391 5392 5396
5603 5596 5589 5581 5573 5567 5560 5554 5548 5541 5536 5532 5526 5521 5516 5511 5505 5498 5493 5485 5478 5471 5463 5456 5451 5442 5432 5419 5411 5397 5383 5377 5377 5383 5378 5379 5380 5381 5379 5378 5379 5381 5386
5610 5599 5591 5584 5576 5570 5563 5556 5548 5543 5537 5534 5527 5522 5515 5510 5503 5496 5490 5482 5474 5467 5459 5451 5443 5435 5425 5416 5404 5394 5383 5373 5366 5366 5371 5372 5371 5371 5369 5368 5370 5375 5383
5613 5603 5594 5587 5580 5574 5566 5558 5550 5543 5537 5531 5527 5519 5513 5508 5502 5495 5487 5479 5471 5462 5456 5447 5440 5429 5418 5407 5395 5384 5373 5365 5359 5356 5356 5362 5363 5366 5365 5366 5368 5371 5379